Regional Weather Roundup
Issued by NWS

Home | Current Version | Previous Version | Graphics & Text | Print | Product List | Glossary On
Versions: 1 2 3 4 5 6 7 8 9 10 11 12 13 14 15 16 17 18 19 20 21 22 23 24 25 26 27 28 29
000
ASUS45 KGTF 242010
RWRMT
MONTANA HOURLY WEATHER ROUNDUP
NATIONAL WEATHER SERVICE GREAT FALLS MT
200 PM MDT FRI APR 24 2015

NOTE: "FAIR" INDICATES FEW OR NO CLOUDS BELOW 12000 FEET WITH NO
SIGNIFICANT WEATHER AND/OR OBSTRUCTIONS TO VISIBILITY.

MTZ001>007-043-242100-
WEST OF THE DIVIDE

CITY           SKY/WX    TMP DP  RH WIND       PRES   REMARKS
KALISPELL      CLOUDY    57  24  28 SW17      29.68F
MISSOULA       LGT RAIN  48  32  53 N10       29.73S
BUTTE          LGT RAIN  39  36  89 NW9       29.68F
DEER LODGE       N/A     46  34  61 NW8       29.72S
EUREKA           N/A     54  19  26 SW17      29.70
HAMILTON         N/A     48  37  66 SE6       29.72S
LIBBY            N/A     50  21  32 S7        29.76R
$$

MTZ008-052>055-242100-
SOUTHWEST MONTANA

CITY           SKY/WX    TMP DP  RH WIND       PRES   REMARKS
BOZEMAN        PTSUNNY   60  36  40 VRB5      29.58F
DILLON         CLOUDY    56  29  35 E9        29.57F
$$

MTZ009-010-012-014-046-048-049-054-242100-
EAST SLOPES AND CENTRAL MONTANA

CITY           SKY/WX    TMP DP  RH WIND       PRES   REMARKS
CUT BANK       CLOUDY    56  25  30 SW24G38   29.63F
GREAT FALLS    CLOUDY    51  36  56 SE6       29.64F
MALMSTROM AFB  LGT RAIN  49  43  79 E5        29.65F
HELENA         LGT RAIN  50  38  63 SE3       29.66F
$$

MTZ011-013-016-021-045-047-050-051-242100-
NORTH CENTRAL MONTANA

CITY           SKY/WX    TMP DP  RH WIND       PRES   REMARKS
HAVRE          CLOUDY    61  31  32 SW12      29.60F
LEWISTOWN      CLOUDY    58  36  43 N10       29.63S
CHINOOK          N/A     61  34  36 CALM      29.61F
FORT BENTON      N/A     54  36  50 S5        29.67R
$$

MTZ017>020-022>042-056>058-061-062-242100-
EASTERN PLAINS

CITY           SKY/WX    TMP DP  RH WIND       PRES   REMARKS
BAKER          SUNNY     69  28  21 SE10      29.60F
BILLINGS       PTSUNNY   68  26  20 VRB7      29.57F
GLASGOW        MOSUNNY   65  39  38 VRB7      29.59S
JORDAN           N/A     68  33  27 NW10      29.57S
LIVINGSTON     CLOUDY    65  30  27 VRB3      29.55F
MILES CITY     PTSUNNY   72  39  30 VRB5      29.54F
SIDNEY         SUNNY     68  30  24 NE7       29.60F
WOLF POINT     SUNNY     71  36  27 CALM      29.56F
FORSYTH          N/A     70  41  35 NW7       29.54F
PLENTYWOOD       N/A     63  30  29 SE9       29.62F
POPLAR           N/A     70  34  26 E6        29.58F
$$

REGIONAL REPORTS...DAKOTAS

CITY           SKY/WX    TMP DP  RH WIND       PRES   REMARKS
WILLISTON      PTSUNNY   66  32  28 E8G17     29.62F
MINOT          SUNNY     60  32  34 E10G23    29.65F
DICKINSON      SUNNY     65  33  30 E7        29.60F
BEACH          FAIR      66  27  22 E6        29.61S
CROSBY         FAIR      63  28  27 SE9       29.64F
WATFORD CITY   FAIR      64  32  29 SE7       29.60F
BISMARCK       SUNNY     66  38  35 E15       29.61F
GRAND FORKS    CLOUDY    50  37  61 SE14      29.75S
FARGO          CLOUDY    54  42  64 SE18      29.70F
BUFFALO SD       N/A     69  33  26 NE12      29.54F
RAPID CITY     CLOUDY    67  40  37 NE6       29.58F
$$

REGIONAL REPORTS...WYOMING/IDAHO/WASHINGTON

CITY           SKY/WX    TMP DP  RH WIND       PRES   REMARKS
GILLETTE       CLOUDY    63  38  39 NE7       29.59S
SHERIDAN       PTSUNNY   63  37  38 S9        29.57F
BUFFALO WY     PTSUNNY   62  39  42 S9        29.62F
CODY           PTSUNNY   63  30  29 CALM      29.58F
YELLOWSTONE LA   N/A     48  23  37 W9        29.73F
IDAHO FALLS    PTSUNNY   63  36  36 SW17G30   29.65F
SALMON         CLOUDY    45  39  81 SW6       29.70S
BOISE          CLOUDY    53  41  63 NW10      29.76F
SPOKANE        PTSUNNY   51  29  42 S14       29.78S
$$

REGIONAL REPORTS...ALBERTA

CITY           SKY/WX    TMP DP  RH WIND       PRES   REMARKS
EDMONTON       CLOUDY    43  36  75 E15       29.73R
CALGARY        CLOUDY    50  32  50 NE12G17   29.62F
LETHBRIDGE     PTSUNNY   54  30  40 SW10      29.63F
MEDICINE HAT   CLOUDY    55  34  44 W12G17    29.61S
$$

REGIONAL REPORTS...SASKATCHEWAN

CITY           SKY/WX    TMP DP  RH WIND       PRES   REMARKS
SWIFT CURRENT  PTSUNNY   57  34  41 S8G17     29.58F
REGINA         PTSUNNY   57  30  35 SE12      29.67S
SASKATOON      PTSUNNY   57  34  41 E10G20    29.70S
$$



USA.gov is the U.S. government's official web portal to all federal, state and local government web resources and services.